This demonstration page uses our WeatherBlox Daily Observations layout. Learn more.

39.01783, -85.05884

Hourly Observations for January 23, 2021

Temp ( °F °C ) Dew Point ( °F °C ) Humidity (%) Winds ( mph kmh ) Pressure ( in mb ) Visibility ( mi km ) Precip ( " mm )
12:52 am 00:52 Clear 22 -5.6 9 -12.8 57 57 NNW 9 15 30.25 1025 10 16.0934 0 0
1:52 am 01:52 Clear 20 -6.7 10 -12.2 65 65 N 10 17 30.28 1026 10 16.0934 0 0
2:52 am 02:52 Clear 19 -7.2 10 -12.2 68 68 N 13 20 30.31 1027 10 16.0934 0 0
3:52 am 03:52 Clear 17 -8.3 7 -13.9 64 64 N 10 17 30.33 1027 10 16.0934 0 0
4:52 am 04:52 Clear 16 -8.9 7 -13.9 67 67 N 7 11 30.33 1027 10 16.0934 0 0
5:52 am 05:52 Clear 15 -9.4 7 -13.9 70 70 N 6 9 30.34 1028 10 16.0934 0 0
6:52 am 06:52 Clear 15 -9.4 8 -13.3 74 74 Calm 30.38 1029 10 16.0934 0 0
7:52 am 07:52 Sunny 15 -9.4 8 -13.3 74 74 NNE 3 6 30.39 1029 10 16.0934 0 0
8:52 am 08:52 Mostly Sunny 18 -7.8 9 -12.8 68 68 NNE 6 9 30.4 1029 10 16.0934 0 0
9:52 am 09:52 Sunny 20 -6.7 10 -12.2 65 65 E 3 6 30.42 1030 10 16.0934 0 0
10:52 am 10:52 Mostly Sunny 24 -4.4 10 -12.2 55 55 E 7 11 30.43 1031 10 16.0934 0 0
11:52 am 11:52 Mostly Sunny 27 -2.8 11 -11.7 51 51 NNE 3 6 30.42 1030 10 16.0934 0 0
12:52 pm 12:52 Mostly Sunny 29 -1.7 10 -12.2 45 45 N 3 6 30.39 1029 10 16.0934 0 0
1:52 pm 13:52 Mostly Sunny 31 -0.6 10 -12.2 42 42 NNE 6 9 30.38 1029 10 16.0934 0 0
2:52 pm 14:52 Mostly Sunny 32 0 10 -12.2 40 40 NNE 5 7 30.36 1028 10 16.0934 0 0
3:52 pm 15:52 Partly Cloudy 34 1.1 11 -11.7 38 38 NE 3 6 30.35 1028 10 16.0934 0 0
4:52 pm 16:52 Mostly Cloudy 32 0 11 -11.7 41 41 ENE 7 11 30.34 1028 10 16.0934 0 0
5:52 pm 17:52 Mostly Clear 31 -0.6 11 -11.7 43 43 ENE 6 9 30.35 1028 10 16.0934 0 0
6:52 pm 18:52 Mostly Clear 27 -2.8 11 -11.7 51 51 E 8 13 30.36 1028 10 16.0934 0 0
7:52 pm 19:52 Mostly Clear 26 -3.3 12 -11.1 55 55 E 8 13 30.35 1028 10 16.0934 0 0
8:52 pm 20:52 Clear 24 -4.4 13 -10.6 62 62 E 8 13 30.33 1027 10 16.0934 0 0
9:52 pm 21:52 Partly Cloudy 24 -4.4 13 -10.6 62 62 E 7 11 30.32 1027 10 16.0934 0 0
10:52 pm 22:52 Mostly Cloudy 27 -2.8 14 -10 58 58 E 10 17 30.3 1026 10 16.0934 0 0
11:52 pm 23:52 Cloudy 28 -2.2 13 -10.6 53 53 E 6 9 30.31 1027 10 16.0934 0 0

Powered by AerisWeather